Weather History for Elmira, NY

Change the Weather History Date:

Monday, December 2, 2013

  Actual Average Record
Temperature  
Mean Temperature 34 °F -  
Max Temperature 39 °F 39 °F 64 °F (1998)
Min Temperature 30 °F 24 °F 8 °F (1930)
Degree Days  
Heating Degree Days 30    
Moisture  
Dew Point 31 °F    
Average Humidity 90    
Maximum Humidity 100    
Minimum Humidity 79    
Precipitation  
Precipitation 0.01 in - - ()
Sea Level Pressure  
Sea Level Pressure 29.91 in    
Wind  
Wind Speed 0 mph (NNW)    
Max Wind Speed 4 mph    
Max Gust Speed -    
Visibility 2 miles    
Events Fog , Rain    
Averages and records for this station are not official NWS values.
T = Trace of Precipitation, MM = Missing Value Source: NWS Daily Summary

Daily Weather History Graph

Daily Weather History Graph

Search for Another Location

Airport:

Trip Planner

Search our weather history database for the weather conditions in past years. The results will help you decide how hot, cold, wet, or windy it might be!

Date:

Astronomy

Dec. 02, 2013 Rise Set
Actual Time 7:17 AM EST 4:36 PM EST
Civil Twilight 6:46 AM EST 5:07 PM EST
Nautical Twilight 6:11 AM EST 5:42 PM EST
Astronomical Twilight 5:37 AM EST 6:16 PM EST
Moon 6:39 AM EST (12/2) 4:37 PM EST (12/2)
Length of Visible Light 10h 21m
Length of Day
9h 18m
Waning Crescent, 0% of the Moon is Illuminated
Dec 2
Waning Crescent
Dec 2
New
Dec 9
First Quarter
Dec 17
Full
Dec 25
Last Quarter

Hourly Weather History & Observations

Time (EST) Temp. Windchill Dew Point Humidity Pressure Visibility Wind Dir Wind Speed Gust Speed Precip Events Conditions
12:53 AM 32.0 °F - 30.0 °F 92% 29.99 in 1.5 mi Calm Calm - N/A   Overcast
1:53 AM 32.0 °F - 30.0 °F 92% 29.97 in 1.5 mi Calm Calm - N/A   Overcast
2:53 AM 32.0 °F - 30.0 °F 92% 29.97 in 1.2 mi Calm Calm - N/A   Overcast
3:53 AM 32.0 °F - 30.0 °F 92% 29.95 in 1.2 mi Calm Calm - N/A   Overcast
4:53 AM 32.0 °F - 30.0 °F 92% 29.95 in 1.0 mi Calm Calm - N/A   Overcast
5:16 AM 32.0 °F - 30.2 °F 93% 29.92 in 0.8 mi Calm Calm - N/A   Overcast
5:50 AM 32.0 °F - 30.2 °F 93% 29.91 in 1.0 mi Calm Calm - N/A   Overcast
5:53 AM 32.0 °F - 30.0 °F 92% 29.94 in 2.0 mi Calm Calm - N/A   Overcast
6:00 AM 32.0 °F - 30.2 °F 93% 29.91 in 3.0 mi Calm Calm - N/A   Overcast
6:53 AM 33.1 °F - 30.0 °F 89% 29.95 in 3.0 mi Calm Calm - N/A   Overcast
7:53 AM 33.1 °F - 30.0 °F 89% 29.95 in 3.0 mi Calm Calm - N/A   Overcast
8:00 AM 32.0 °F - 30.2 °F 93% 29.92 in 2.5 mi Calm Calm - N/A   Overcast
8:53 AM 33.1 °F - 30.0 °F 89% 29.96 in 2.5 mi Calm Calm - N/A   Overcast
9:00 AM 33.8 °F - 30.2 °F 87% 29.93 in 1.5 mi Calm Calm - N/A   Overcast
9:53 AM 34.0 °F - 30.9 °F 89% 29.96 in 2.0 mi Calm Calm - N/A   Overcast
10:13 AM 33.8 °F - 30.2 °F 87% 29.93 in 3.0 mi Calm Calm - N/A   Overcast
10:53 AM 34.0 °F 31.0 °F 30.9 °F 89% 29.94 in 3.0 mi NNE 3.5 mph - N/A   Overcast
11:53 AM 36.0 °F - 32.0 °F 86% 29.92 in 3.0 mi Calm Calm - N/A   Overcast
12:53 PM 37.0 °F - 33.1 °F 86% 29.90 in 4.0 mi Calm Calm - N/A   Overcast
1:53 PM 37.9 °F 35.5 °F 33.1 °F 83% 29.88 in 4.0 mi North 3.5 mph - N/A   Haze
2:53 PM 39.0 °F - 33.1 °F 79% 29.88 in 6.0 mi Calm Calm - N/A   Haze
3:53 PM 37.9 °F - 32.0 °F 79% 29.88 in 5.0 mi Calm Calm - N/A   Haze
4:53 PM 36.0 °F - 32.0 °F 86% 29.89 in 5.0 mi Calm Calm - N/A   Overcast
5:53 PM 36.0 °F - 33.1 °F 89% 29.91 in 4.0 mi Calm Calm - N/A   Overcast
6:53 PM 36.0 °F - 33.1 °F 89% 29.91 in 4.0 mi Calm Calm - 0.00 in Rain Light Rain
7:06 PM 35.6 °F - 32.0 °F 87% 29.88 in 4.0 mi Calm Calm - 0.00 in Rain Light Rain
7:53 PM 36.0 °F - 33.1 °F 89% 29.91 in 3.0 mi Calm Calm - 0.01 in Rain Light Rain
8:08 PM 33.8 °F - 32.0 °F 93% 29.88 in 2.5 mi Calm Calm - 0.00 in Rain Light Rain
8:24 PM 33.8 °F - 32.0 °F 93% 29.87 in 2.0 mi Calm Calm - 0.00 in Rain Light Rain
8:51 PM 33.8 °F - 30.2 °F 87% 29.87 in 1.5 mi Calm Calm - 0.00 in   Mostly Cloudy
8:53 PM 34.0 °F - 30.9 °F 89% 29.90 in 1.5 mi Calm Calm - 0.00 in   Mostly Cloudy
9:28 PM 33.8 °F - 30.2 °F 87% 29.87 in 0.8 mi Calm Calm - N/A   Mostly Cloudy
9:53 PM 33.1 °F - 30.9 °F 92% 29.90 in 0.8 mi Calm Calm - N/A   Overcast
9:58 PM 32.0 °F - 30.2 °F 93% 29.87 in 0.2 mi Calm Calm - N/A Fog Fog
10:08 PM 30.2 °F - 28.4 °F 93% 29.87 in 0.2 mi Calm Calm - N/A Fog Light Freezing Fog
10:39 PM 32.0 °F - 28.4 °F 87% 29.87 in 0.2 mi Calm Calm - N/A Fog Fog
10:41 PM 32.0 °F - 28.4 °F 87% 29.87 in 0.2 mi Calm Calm - N/A Fog Fog
10:53 PM 32.0 °F - 30.0 °F 92% 29.90 in 0.2 mi Calm Calm - N/A Fog Fog
11:32 PM 30.2 °F - 30.2 °F 100% 29.87 in 0.2 mi Calm Calm - N/A Fog Light Freezing Fog
11:53 PM 32.0 °F 28.7 °F 30.0 °F 92% 29.90 in 0.2 mi WSW 3.5 mph - N/A Fog Fog